星链-3913 (STARLINK-3913 )

导读 | 豆包AI

STARLINK-3913是美国SpaceX公司星链(Starlink)星座中的一颗低轨通信卫星,于2022年5月6日发射入轨,属于星链第二代部署批次。它运行在近地轨道,配备相控阵天线与氪离子推进系统,可提供高速低延迟的全球卫星互联网接入服务,为偏远地区、移动场景及应急通信提供支撑,是SpaceX大规模低轨星座组网的组成部分,设计服役约5年,退役后会再入大气层焚毁。

Basic Information
目录编号:
52485
目录名称:
STARLINK-3913
国际标识:
2022-049AL
轨道中心:
EARTH
卫星名称:
星链-3913
卫星全名:
星链-3913 (STARLINK-3913 )
卫星状态:
在轨 (已飞行1409 天)
发射日期:
2022-05-06 UTC
国别 :
美国 (US)
星等 :
--
Orbit Information
数据来源 国际轨道数据 AOE轨道数据
星历时间 2026-03-14T11:33:22+0800
21小时前
查看轨道信息
2026-03-11T11:00:00+0800
3天前
查看轨道信息
半长轴 6917.885km 6917.857km
偏心率 0.0001443 0.0000444
轨道倾角 53.218° 53.222°
近地点辐角 85.735° 47.451°
升交点赤经 29.106° 42.681°
平近点角 274.380° 82.420°
近地点 538.749km 539.412km
远地点 540.747km 540.028km
周期 95.438分钟 95.437分钟
每日圈数 15.088385 15.088478
Detailed Information
固有亮度:
5
最大亮度:
2.5
卫星平台:
Starlink v1.5
覆盖范围:
全球
运营商:
太空探索技术公司
运营商所在国:
美国
制造商(研发单位):
太空探索技术公司
制造商所在国:
美国
使用方式:
暂无
Satellite Introduction
星链(Starlink)计划是由太空探索技术公司(SpaceX)提出的一个巨型低轨卫星互联网星座项目,计划在2019年至2024年间在太空搭建由约1.2万颗卫星组成的“星链”网络,其中1584颗将部署在地球上空550千米处的近地轨道,并从2020年开始工作。该卫星仍在工作。
2D Orbit Map
3D Orbit Map
Orbit Altitude Analysis Chart
Orbit Inclination Analysis Chart
Orbit Comprehensive Analysis Chart
View Comprehensive Chart